Location: Arrington
(35.8681°N, 86.7092°W)
Time: 14:02:54
(UTC+00:00)

Cosmos 1933 - Pass Details

Date: 23 November 2019
Orbit: 546 x 565 km, 82.5° (Epoch: 10 December)

Event Time Altitude Azimuth Distance (km) Brightness Sun altitude
Exits shadow 11:08:27 12° 344° (NNW) 1,668 5.5 -16.6°
Maximum altitude 11:12:00 59° 266° (W) 636 3.3 -15.9°
Drops below altitude 10° 11:15:55 10° 187° (S) 1,810 6.0 -15.1°
Sets 11:18:05 0° 183° (S) 2,699 7.0 -14.7°
